Year,Month,Day,Hour,Minute,Value (Times are PST for temperature in C)
2009,04,25,00,00,7.20
2009,04,25,00,01,7.10
2009,04,25,00,02,7.10
2009,04,25,00,03,7.10
2009,04,25,00,04,7.10
2009,04,25,00,05,7.10
2009,04,25,00,06,7.10
2009,04,25,00,07,7.10
2009,04,25,00,08,7.10
2009,04,25,00,09,7.10
2009,04,25,00,10,7.10
2009,04,25,00,11,7.10
2009,04,25,00,12,7.10
2009,04,25,00,13,7.10
2009,04,25,00,14,7.10
2009,04,25,00,15,7.10
2009,04,25,00,16,7.10
2009,04,25,00,17,7.00
2009,04,25,00,18,7.00
2009,04,25,00,19,7.00
2009,04,25,00,20,7.00
2009,04,25,00,21,7.00
2009,04,25,00,22,7.00
2009,04,25,00,23,7.00
2009,04,25,00,24,7.00
2009,04,25,00,25,7.00
2009,04,25,00,26,7.00
2009,04,25,00,27,7.00
2009,04,25,00,28,7.00
2009,04,25,00,29,7.00
2009,04,25,00,30,7.00
2009,04,25,00,31,7.00
2009,04,25,00,32,7.00
2009,04,25,00,33,7.10
2009,04,25,00,34,7.10
2009,04,25,00,35,7.10
2009,04,25,00,36,7.10
2009,04,25,00,37,7.10
2009,04,25,00,38,7.10
2009,04,25,00,39,7.10
2009,04,25,00,40,7.10
2009,04,25,00,41,7.10
2009,04,25,00,42,7.10
2009,04,25,00,43,7.10
2009,04,25,00,44,7.10
2009,04,25,00,45,7.00
2009,04,25,00,46,7.00
2009,04,25,00,47,7.00
2009,04,25,00,48,7.10
2009,04,25,00,49,7.10
2009,04,25,00,50,7.10
2009,04,25,00,51,7.10
2009,04,25,00,52,7.10
2009,04,25,00,53,7.10
2009,04,25,00,54,7.10
2009,04,25,00,55,7.10
2009,04,25,00,56,7.10
2009,04,25,00,57,7.10
2009,04,25,00,58,7.10
2009,04,25,00,59,7.10
2009,04,25,01,00,7.10
2009,04,25,01,01,7.10
2009,04,25,01,02,7.10
2009,04,25,01,03,7.10
2009,04,25,01,04,7.10
2009,04,25,01,05,7.10
2009,04,25,01,06,7.10
2009,04,25,01,07,7.10
2009,04,25,01,08,7.10
2009,04,25,01,09,7.10
2009,04,25,01,10,7.10
2009,04,25,01,11,7.10
2009,04,25,01,12,7.10
2009,04,25,01,13,7.10
2009,04,25,01,14,7.00
2009,04,25,01,15,7.00
2009,04,25,01,16,7.00
2009,04,25,01,17,7.00
2009,04,25,01,18,7.00
2009,04,25,01,19,7.00
2009,04,25,01,20,7.00
2009,04,25,01,21,7.00
2009,04,25,01,22,7.00
2009,04,25,01,23,7.00
2009,04,25,01,24,7.00
2009,04,25,01,25,7.00
2009,04,25,01,26,7.00
2009,04,25,01,27,7.00
2009,04,25,01,28,7.00
2009,04,25,01,29,7.00
2009,04,25,01,30,7.00
2009,04,25,01,31,7.00
2009,04,25,01,32,7.00
2009,04,25,01,33,7.00
2009,04,25,01,34,7.00
2009,04,25,01,35,7.00
2009,04,25,01,36,7.00
2009,04,25,01,37,7.00
2009,04,25,01,38,7.00
2009,04,25,01,39,7.00
2009,04,25,01,40,7.00
2009,04,25,01,41,7.00
2009,04,25,01,42,7.00
2009,04,25,01,43,7.00
2009,04,25,01,44,7.00
2009,04,25,01,45,7.00
2009,04,25,01,46,7.00
2009,04,25,01,47,7.00
2009,04,25,01,48,7.00
2009,04,25,01,49,7.00
2009,04,25,01,50,7.00
2009,04,25,01,51,7.00
2009,04,25,01,52,7.00
2009,04,25,01,53,7.00
2009,04,25,01,54,7.00
2009,04,25,01,55,7.00
2009,04,25,01,56,7.00
2009,04,25,01,57,6.90
2009,04,25,01,58,6.90
2009,04,25,01,59,6.90
2009,04,25,02,00,6.90
2009,04,25,02,01,6.90
2009,04,25,02,02,6.90
2009,04,25,02,03,6.90
2009,04,25,02,04,6.90
2009,04,25,02,05,6.90
2009,04,25,02,06,6.90
2009,04,25,02,07,6.90
2009,04,25,02,08,6.90
2009,04,25,02,09,6.90
2009,04,25,02,10,6.90
2009,04,25,02,11,6.90
2009,04,25,02,12,6.90
2009,04,25,02,13,6.90
2009,04,25,02,14,6.90
2009,04,25,02,15,6.90
2009,04,25,02,16,6.90
2009,04,25,02,17,6.90
2009,04,25,02,18,6.90
2009,04,25,02,19,6.90
2009,04,25,02,20,6.90
2009,04,25,02,21,6.90
2009,04,25,02,22,6.90
2009,04,25,02,23,6.90
2009,04,25,02,24,6.90
2009,04,25,02,25,6.90
2009,04,25,02,26,6.90
2009,04,25,02,27,6.90
2009,04,25,02,28,6.90
2009,04,25,02,29,6.90
2009,04,25,02,30,6.90
2009,04,25,02,31,6.90
2009,04,25,02,32,6.90
2009,04,25,02,33,6.90
2009,04,25,02,34,6.90
2009,04,25,02,35,6.90
2009,04,25,02,36,6.90
2009,04,25,02,37,6.90
2009,04,25,02,38,6.90
2009,04,25,02,39,6.90
2009,04,25,02,40,6.90
2009,04,25,02,41,6.90
2009,04,25,02,42,6.90
2009,04,25,02,43,6.90
2009,04,25,02,44,6.90
2009,04,25,02,45,6.90
2009,04,25,02,46,6.90
2009,04,25,02,47,6.90
2009,04,25,02,48,6.90
2009,04,25,02,49,6.90
2009,04,25,02,50,6.90
2009,04,25,02,51,6.80
2009,04,25,02,52,6.80
2009,04,25,02,53,6.90
2009,04,25,02,54,6.90
2009,04,25,02,55,6.90
2009,04,25,02,56,6.90
2009,04,25,02,57,6.90
2009,04,25,02,58,6.90
2009,04,25,02,59,6.80
2009,04,25,03,00,6.80
2009,04,25,03,01,6.80
2009,04,25,03,02,6.80
2009,04,25,03,03,6.80
2009,04,25,03,04,6.80
2009,04,25,03,05,6.80
2009,04,25,03,06,6.80
2009,04,25,03,07,6.80
2009,04,25,03,08,6.80
2009,04,25,03,09,6.80
2009,04,25,03,10,6.80
2009,04,25,03,11,6.80
2009,04,25,03,12,6.80
2009,04,25,03,13,6.80
2009,04,25,03,14,6.80
2009,04,25,03,15,6.80
2009,04,25,03,16,6.80
2009,04,25,03,17,6.80
2009,04,25,03,18,6.80
2009,04,25,03,19,6.80
2009,04,25,03,20,6.80
2009,04,25,03,21,6.80
2009,04,25,03,22,6.80
2009,04,25,03,23,6.80
2009,04,25,03,24,6.80
2009,04,25,03,25,6.80
2009,04,25,03,26,6.80
2009,04,25,03,27,6.80
2009,04,25,03,28,6.80
2009,04,25,03,29,6.80
2009,04,25,03,30,6.80
2009,04,25,03,31,6.80
2009,04,25,03,32,6.80
2009,04,25,03,33,6.80
2009,04,25,03,34,6.80
2009,04,25,03,35,6.80
2009,04,25,03,36,6.80
2009,04,25,03,37,6.80
2009,04,25,03,38,6.80
2009,04,25,03,39,6.80
2009,04,25,03,40,6.80
2009,04,25,03,41,6.80
2009,04,25,03,42,6.80
2009,04,25,03,43,6.80
2009,04,25,03,44,6.80
2009,04,25,03,45,6.80
2009,04,25,03,46,6.80
2009,04,25,03,47,6.80
2009,04,25,03,48,6.80
2009,04,25,03,49,6.80
2009,04,25,03,50,6.80
2009,04,25,03,51,6.80
2009,04,25,03,52,6.70
2009,04,25,03,53,6.70
2009,04,25,03,54,6.70
2009,04,25,03,55,6.70
2009,04,25,03,56,6.70
2009,04,25,03,57,6.70
2009,04,25,03,58,6.80
2009,04,25,03,59,6.80
2009,04,25,04,00,6.80
2009,04,25,04,01,6.80
2009,04,25,04,02,6.80
2009,04,25,04,03,6.80
2009,04,25,04,04,6.80
2009,04,25,04,05,6.80
2009,04,25,04,06,6.80
2009,04,25,04,07,6.80
2009,04,25,04,08,6.80
2009,04,25,04,09,6.80
2009,04,25,04,10,6.80
2009,04,25,04,11,6.80
2009,04,25,04,12,6.80
2009,04,25,04,13,6.80
2009,04,25,04,14,6.80
2009,04,25,04,15,6.80
2009,04,25,04,16,6.80
2009,04,25,04,17,6.80
2009,04,25,04,18,6.80
2009,04,25,04,19,6.80
2009,04,25,04,20,6.80
2009,04,25,04,21,6.80
2009,04,25,04,22,6.80
2009,04,25,04,23,6.80
2009,04,25,04,24,6.80
2009,04,25,04,25,6.80
2009,04,25,04,26,6.80
2009,04,25,04,27,6.80
2009,04,25,04,28,6.80
2009,04,25,04,29,6.80
2009,04,25,04,30,6.80
2009,04,25,04,31,6.80
2009,04,25,04,32,6.80
2009,04,25,04,33,6.80
2009,04,25,04,34,6.80
2009,04,25,04,35,6.80
2009,04,25,04,36,6.80
2009,04,25,04,37,6.80
2009,04,25,04,38,6.80
2009,04,25,04,39,6.80
2009,04,25,04,40,6.80
2009,04,25,04,41,6.80
2009,04,25,04,42,6.80
2009,04,25,04,43,6.80
2009,04,25,04,44,6.80
2009,04,25,04,45,6.80
2009,04,25,04,46,6.80
2009,04,25,04,47,6.80
2009,04,25,04,48,6.80
2009,04,25,04,49,6.80
2009,04,25,04,50,6.80
2009,04,25,04,51,6.70
2009,04,25,04,52,6.70
2009,04,25,04,53,6.70
2009,04,25,04,54,6.70
2009,04,25,04,55,6.70
2009,04,25,04,56,6.70
2009,04,25,04,57,6.70
2009,04,25,04,58,6.70
2009,04,25,04,59,6.70
2009,04,25,05,00,6.70
2009,04,25,05,01,6.70
2009,04,25,05,02,6.70
2009,04,25,05,03,6.70
2009,04,25,05,04,6.70
2009,04,25,05,05,6.70
2009,04,25,05,06,6.70
2009,04,25,05,07,6.70
2009,04,25,05,08,6.70
2009,04,25,05,09,6.60
2009,04,25,05,10,6.60
2009,04,25,05,11,6.60
2009,04,25,05,12,6.60
2009,04,25,05,13,6.60
2009,04,25,05,14,6.60
2009,04,25,05,15,6.60
2009,04,25,05,16,6.60
2009,04,25,05,17,6.60
2009,04,25,05,18,6.60
2009,04,25,05,19,6.60
2009,04,25,05,20,6.60
2009,04,25,05,21,6.60
2009,04,25,05,22,6.60
2009,04,25,05,23,6.50
2009,04,25,05,24,6.40
2009,04,25,05,25,6.40
2009,04,25,05,26,6.40
2009,04,25,05,27,6.40
2009,04,25,05,28,6.40
2009,04,25,05,29,6.40
2009,04,25,05,30,6.40
2009,04,25,05,31,6.40
2009,04,25,05,32,6.30
2009,04,25,05,33,6.30
2009,04,25,05,34,6.30
2009,04,25,05,35,6.30
2009,04,25,05,36,6.30
2009,04,25,05,37,6.30
2009,04,25,05,38,6.30
2009,04,25,05,39,6.30
2009,04,25,05,40,6.30
2009,04,25,05,41,6.30
2009,04,25,05,42,6.30
2009,04,25,05,43,6.20
2009,04,25,05,44,6.20
2009,04,25,05,45,6.20
2009,04,25,05,46,6.20
2009,04,25,05,47,6.20
2009,04,25,05,48,6.20
2009,04,25,05,49,6.20
2009,04,25,05,50,6.20
2009,04,25,05,51,6.20
2009,04,25,05,52,6.20
2009,04,25,05,53,6.20
2009,04,25,05,54,6.20
2009,04,25,05,55,6.20
2009,04,25,05,56,6.20
2009,04,25,05,57,6.20
2009,04,25,05,58,6.20
2009,04,25,05,59,6.20
2009,04,25,06,00,6.20
2009,04,25,06,01,6.20
2009,04,25,06,02,6.20
2009,04,25,06,03,6.20
2009,04,25,06,04,6.20
2009,04,25,06,05,6.20
2009,04,25,06,06,6.10
2009,04,25,06,07,6.10
2009,04,25,06,08,6.10
2009,04,25,06,09,6.10
2009,04,25,06,10,6.10
2009,04,25,06,11,6.10
2009,04,25,06,12,6.10
2009,04,25,06,13,6.10
2009,04,25,06,14,6.10
2009,04,25,06,15,6.10
2009,04,25,06,16,6.10
2009,04,25,06,17,6.10
2009,04,25,06,18,6.00
2009,04,25,06,19,6.00
2009,04,25,06,20,6.00
2009,04,25,06,21,6.00
2009,04,25,06,22,6.00
2009,04,25,06,23,6.00
2009,04,25,06,24,6.00
2009,04,25,06,25,6.00
2009,04,25,06,26,6.00
2009,04,25,06,27,6.00
2009,04,25,06,28,6.00
2009,04,25,06,29,6.00
2009,04,25,06,30,6.00
2009,04,25,06,31,6.00
2009,04,25,06,32,5.90
2009,04,25,06,33,5.90
2009,04,25,06,34,5.90
2009,04,25,06,35,5.90
2009,04,25,06,36,5.80
2009,04,25,06,37,5.80
2009,04,25,06,38,5.70
2009,04,25,06,39,5.70
2009,04,25,06,40,5.70
2009,04,25,06,41,5.70
2009,04,25,06,42,5.70
2009,04,25,06,43,5.60
2009,04,25,06,44,5.60
2009,04,25,06,45,5.50
2009,04,25,06,46,5.50
2009,04,25,06,47,5.40
2009,04,25,06,48,5.40
2009,04,25,06,49,5.40
2009,04,25,06,50,5.30
2009,04,25,06,51,5.30
2009,04,25,06,52,5.30
2009,04,25,06,53,5.30
2009,04,25,06,54,5.30
2009,04,25,06,55,5.30
2009,04,25,06,56,5.30
2009,04,25,06,57,5.30
2009,04,25,06,58,5.30
2009,04,25,06,59,5.20
2009,04,25,07,00,5.20
2009,04,25,07,01,5.10
2009,04,25,07,02,5.10
2009,04,25,07,03,5.10
2009,04,25,07,04,5.10
2009,04,25,07,05,5.10
2009,04,25,07,06,5.10
2009,04,25,07,07,5.00
2009,04,25,07,08,4.90
2009,04,25,07,09,4.90
2009,04,25,07,10,4.90
2009,04,25,07,11,4.90
2009,04,25,07,12,4.90
2009,04,25,07,13,4.90
2009,04,25,07,14,4.90
2009,04,25,07,15,4.90
2009,04,25,07,16,4.90
2009,04,25,07,17,4.90
2009,04,25,07,18,4.90
2009,04,25,07,19,4.90
2009,04,25,07,20,4.90
2009,04,25,07,21,4.90
2009,04,25,07,22,4.90
2009,04,25,07,23,5.00
2009,04,25,07,24,5.10
2009,04,25,07,25,5.10
2009,04,25,07,26,5.10
2009,04,25,07,27,5.10
2009,04,25,07,28,5.10
2009,04,25,07,29,5.20
2009,04,25,07,30,5.20
2009,04,25,07,31,5.30
2009,04,25,07,32,5.30
2009,04,25,07,33,5.40
2009,04,25,07,34,5.40
2009,04,25,07,35,5.50
2009,04,25,07,36,5.50
2009,04,25,07,37,5.60
2009,04,25,07,38,5.60
2009,04,25,07,39,5.70
2009,04,25,07,40,5.70
2009,04,25,07,41,5.70
2009,04,25,07,42,5.70
2009,04,25,07,43,5.80
2009,04,25,07,44,5.80
2009,04,25,07,45,5.80
2009,04,25,07,46,5.80
2009,04,25,07,47,5.90
2009,04,25,07,48,5.90
2009,04,25,07,49,5.90
2009,04,25,07,50,5.90
2009,04,25,07,51,6.00
2009,04,25,07,52,6.00
2009,04,25,07,53,6.00
2009,04,25,07,54,6.00
2009,04,25,07,55,6.00
2009,04,25,07,56,6.10
2009,04,25,07,57,6.10
2009,04,25,07,58,6.10
2009,04,25,07,59,6.20
2009,04,25,08,00,6.20
2009,04,25,08,01,6.20
2009,04,25,08,02,6.20
2009,04,25,08,03,6.20
2009,04,25,08,04,6.30
2009,04,25,08,05,6.30
2009,04,25,08,06,6.40
2009,04,25,08,07,6.40
2009,04,25,08,08,6.40
2009,04,25,08,09,6.40
2009,04,25,08,10,6.40
2009,04,25,08,11,6.50
2009,04,25,08,12,6.60
2009,04,25,08,13,6.60
2009,04,25,08,14,6.60
2009,04,25,08,15,6.60
2009,04,25,08,16,6.60
2009,04,25,08,17,6.60
2009,04,25,08,18,6.60
2009,04,25,08,19,6.60
2009,04,25,08,20,6.60
2009,04,25,08,21,6.60
2009,04,25,08,22,6.60
2009,04,25,08,23,6.60
2009,04,25,08,24,6.60
2009,04,25,08,25,6.60
2009,04,25,08,26,6.60
2009,04,25,08,27,6.60
2009,04,25,08,28,6.60
2009,04,25,08,29,6.70
2009,04,25,08,30,6.70
2009,04,25,08,31,6.70
2009,04,25,08,32,6.70
2009,04,25,08,33,6.70
2009,04,25,08,34,6.70
2009,04,25,08,35,6.70
2009,04,25,08,36,6.80
2009,04,25,08,37,6.80
2009,04,25,08,38,6.80
2009,04,25,08,39,6.80
2009,04,25,08,40,6.80
2009,04,25,08,41,6.80
2009,04,25,08,42,6.80
2009,04,25,08,43,6.80
2009,04,25,08,44,6.90
2009,04,25,08,45,6.90
2009,04,25,08,46,7.00
2009,04,25,08,47,7.00
2009,04,25,08,48,7.10
2009,04,25,08,49,7.10
2009,04,25,08,50,7.20
2009,04,25,08,51,7.30
2009,04,25,08,52,7.30
2009,04,25,08,53,7.30
2009,04,25,08,54,7.30
2009,04,25,08,55,7.30
2009,04,25,08,56,7.40
2009,04,25,08,57,7.40
2009,04,25,08,58,7.40
2009,04,25,08,59,7.40
2009,04,25,09,00,7.50
2009,04,25,09,01,7.50
2009,04,25,09,02,7.50
2009,04,25,09,03,7.60
2009,04,25,09,04,7.60
2009,04,25,09,05,7.70
2009,04,25,09,06,7.70
2009,04,25,09,07,7.80
2009,04,25,09,08,7.80
2009,04,25,09,09,7.80
2009,04,25,09,10,7.90
2009,04,25,09,11,7.90
2009,04,25,09,12,8.00
2009,04,25,09,13,8.00
2009,04,25,09,14,8.00
2009,04,25,09,15,8.10
2009,04,25,09,16,8.20
2009,04,25,09,17,8.20
2009,04,25,09,18,8.20
2009,04,25,09,19,8.30
2009,04,25,09,20,8.30
2009,04,25,09,21,8.30
2009,04,25,09,22,8.30
2009,04,25,09,23,8.30
2009,04,25,09,24,8.40
2009,04,25,09,25,8.40
2009,04,25,09,26,8.30
2009,04,25,09,27,8.30
2009,04,25,09,28,8.30
2009,04,25,09,29,8.30
2009,04,25,09,30,8.20
2009,04,25,09,31,8.20
2009,04,25,09,32,8.20
2009,04,25,09,33,8.20
2009,04,25,09,34,8.20
2009,04,25,09,35,8.30
2009,04,25,09,36,8.30
2009,04,25,09,37,8.40
2009,04,25,09,38,8.50
2009,04,25,09,39,8.50
2009,04,25,09,40,8.60
2009,04,25,09,41,8.60
2009,04,25,09,42,8.60
2009,04,25,09,43,8.60
2009,04,25,09,44,8.60
2009,04,25,09,45,8.60
2009,04,25,09,46,8.60
2009,04,25,09,47,8.60
2009,04,25,09,48,8.50
2009,04,25,09,49,8.50
2009,04,25,09,50,8.50
2009,04,25,09,51,8.50
2009,04,25,09,52,8.50
2009,04,25,09,53,8.50
2009,04,25,09,54,8.50
2009,04,25,09,55,8.50
2009,04,25,09,56,8.60
2009,04,25,09,57,8.60
2009,04,25,09,58,8.60
2009,04,25,09,59,8.60
2009,04,25,10,00,8.60
2009,04,25,10,01,8.60
2009,04,25,10,02,8.60
2009,04,25,10,03,8.70
2009,04,25,10,04,8.70
2009,04,25,10,05,8.80
2009,04,25,10,06,8.80
2009,04,25,10,07,8.90
2009,04,25,10,08,8.90
2009,04,25,10,09,9.00
2009,04,25,10,10,9.00
2009,04,25,10,11,9.00
2009,04,25,10,12,9.00
2009,04,25,10,13,9.00
2009,04,25,10,14,9.00
2009,04,25,10,15,8.90
2009,04,25,10,16,8.90
2009,04,25,10,17,9.00
2009,04,25,10,18,9.00
2009,04,25,10,19,9.10
2009,04,25,10,20,9.10
2009,04,25,10,21,9.10
2009,04,25,10,22,9.10
2009,04,25,10,23,9.10
2009,04,25,10,24,9.10
2009,04,25,10,25,9.10
2009,04,25,10,26,9.10
2009,04,25,10,27,9.10
2009,04,25,10,28,9.10
2009,04,25,10,29,9.10
2009,04,25,10,30,9.10
2009,04,25,10,31,9.20
2009,04,25,10,32,9.20
2009,04,25,10,33,9.20
2009,04,25,10,34,9.20
2009,04,25,10,35,9.20
2009,04,25,10,36,9.20
2009,04,25,10,37,9.20
2009,04,25,10,38,9.20
2009,04,25,10,39,9.20
2009,04,25,10,40,9.20
2009,04,25,10,41,9.20
2009,04,25,10,42,9.20
2009,04,25,10,43,9.30
2009,04,25,10,44,9.40
2009,04,25,10,45,9.50
2009,04,25,10,46,9.70
2009,04,25,10,47,9.80
2009,04,25,10,48,9.80
2009,04,25,10,49,9.80
2009,04,25,10,50,9.80
2009,04,25,10,51,9.80
2009,04,25,10,52,9.70
2009,04,25,10,53,9.80
2009,04,25,10,54,9.80
2009,04,25,10,55,9.90
2009,04,25,10,56,9.90
2009,04,25,10,57,10.00
2009,04,25,10,58,10.10
2009,04,25,10,59,10.10
2009,04,25,11,00,9.90
2009,04,25,11,01,9.80
2009,04,25,11,02,9.70
2009,04,25,11,03,9.60
2009,04,25,11,04,9.60
2009,04,25,11,05,9.50
2009,04,25,11,06,9.60
2009,04,25,11,07,9.60
2009,04,25,11,08,9.60
2009,04,25,11,09,9.50
2009,04,25,11,10,9.40
2009,04,25,11,11,9.40
2009,04,25,11,12,9.30
2009,04,25,11,13,9.30
2009,04,25,11,14,9.20
2009,04,25,11,15,9.10
2009,04,25,11,16,9.10
2009,04,25,11,17,9.20
2009,04,25,11,18,9.20
2009,04,25,11,19,9.20
2009,04,25,11,20,9.20
2009,04,25,11,21,9.20
2009,04,25,11,22,9.20
2009,04,25,11,23,9.20
2009,04,25,11,24,9.20
2009,04,25,11,25,9.20
2009,04,25,11,26,9.20
2009,04,25,11,27,9.30
2009,04,25,11,28,9.30
2009,04,25,11,29,9.30
2009,04,25,11,30,9.20
2009,04,25,11,31,9.20
2009,04,25,11,32,9.20
2009,04,25,11,33,9.20
2009,04,25,11,34,9.20
2009,04,25,11,35,9.20
2009,04,25,11,36,9.10
2009,04,25,11,37,9.10
2009,04,25,11,38,9.00
2009,04,25,11,39,9.00
2009,04,25,11,40,9.00
2009,04,25,11,41,9.00
2009,04,25,11,42,9.10
2009,04,25,11,43,9.10
2009,04,25,11,44,9.10
2009,04,25,11,45,9.00
2009,04,25,11,46,9.00
2009,04,25,11,47,9.00
2009,04,25,11,48,9.00
2009,04,25,11,49,9.00
2009,04,25,11,50,9.10
2009,04,25,11,51,9.10
2009,04,25,11,52,9.10
2009,04,25,11,53,9.10
2009,04,25,11,54,9.10
2009,04,25,11,55,9.10
2009,04,25,11,56,9.20
2009,04,25,11,57,9.20
2009,04,25,11,58,9.20
2009,04,25,11,59,9.20
2009,04,25,12,00,9.20
2009,04,25,12,01,9.30
2009,04,25,12,02,9.30
2009,04,25,12,03,9.30
2009,04,25,12,04,9.40
2009,04,25,12,05,9.40
2009,04,25,12,06,9.40
2009,04,25,12,07,9.40
2009,04,25,12,08,9.40
2009,04,25,12,09,9.40
2009,04,25,12,10,9.40
2009,04,25,12,11,9.40
2009,04,25,12,12,9.40
2009,04,25,12,13,9.40
2009,04,25,12,14,9.40
2009,04,25,12,15,9.40
2009,04,25,12,16,9.40
2009,04,25,12,17,9.40
2009,04,25,12,18,9.30
2009,04,25,12,19,9.20
2009,04,25,12,20,9.20
2009,04,25,12,21,9.20
2009,04,25,12,22,9.20
2009,04,25,12,23,9.20
2009,04,25,12,24,9.20
2009,04,25,12,25,9.20
2009,04,25,12,26,9.20
2009,04,25,12,27,9.20
2009,04,25,12,28,9.20
2009,04,25,12,29,9.20
2009,04,25,12,30,9.20
2009,04,25,12,31,9.20
2009,04,25,12,32,9.20
2009,04,25,12,33,9.10
2009,04,25,12,34,9.10
2009,04,25,12,35,9.10
2009,04,25,12,36,9.00
2009,04,25,12,37,9.00
2009,04,25,12,38,9.00
2009,04,25,12,39,9.10
2009,04,25,12,40,9.10
2009,04,25,12,41,9.10
2009,04,25,12,42,9.20
2009,04,25,12,43,9.20
2009,04,25,12,44,9.10
2009,04,25,12,45,9.10
2009,04,25,12,46,9.10
2009,04,25,12,47,9.10
2009,04,25,12,48,9.10
2009,04,25,12,49,9.20
2009,04,25,12,50,9.20
2009,04,25,12,51,9.10
2009,04,25,12,52,9.10
2009,04,25,12,53,9.00
2009,04,25,12,54,8.90
2009,04,25,12,55,8.90
2009,04,25,12,56,8.90
2009,04,25,12,57,8.90
2009,04,25,12,58,8.80
2009,04,25,12,59,8.90
2009,04,25,13,00,8.90
2009,04,25,13,01,8.90
2009,04,25,13,02,8.90
2009,04,25,13,03,8.80
2009,04,25,13,04,8.80
2009,04,25,13,05,8.80
2009,04,25,13,06,8.80
2009,04,25,13,07,8.90
2009,04,25,13,08,8.90
2009,04,25,13,09,8.90
2009,04,25,13,10,8.90
2009,04,25,13,11,9.00
2009,04,25,13,12,9.00
2009,04,25,13,13,9.10
2009,04,25,13,14,9.20
2009,04,25,13,15,9.20
2009,04,25,13,16,9.10
2009,04,25,13,17,9.10
2009,04,25,13,18,9.00
2009,04,25,13,19,9.00
2009,04,25,13,20,9.00
2009,04,25,13,21,8.90
2009,04,25,13,22,8.90
2009,04,25,13,23,8.80
2009,04,25,13,24,8.80
2009,04,25,13,25,8.80
2009,04,25,13,26,8.80
2009,04,25,13,27,8.90
2009,04,25,13,28,8.80
2009,04,25,13,29,8.80
2009,04,25,13,30,8.80
2009,04,25,13,31,8.80
2009,04,25,13,32,8.80
2009,04,25,13,33,8.90
2009,04,25,13,34,8.90
2009,04,25,13,35,9.00
2009,04,25,13,36,9.10
2009,04,25,13,37,9.30
2009,04,25,13,38,9.30
2009,04,25,13,39,9.40
2009,04,25,13,40,9.50
2009,04,25,13,41,9.60
2009,04,25,13,42,9.80
2009,04,25,13,43,10.00
2009,04,25,13,44,10.10
2009,04,25,13,45,10.20
2009,04,25,13,46,10.10
2009,04,25,13,47,10.10
2009,04,25,13,48,9.90
2009,04,25,13,49,9.80
2009,04,25,13,50,9.80
2009,04,25,13,51,9.80
2009,04,25,13,52,9.80
2009,04,25,13,53,9.90
2009,04,25,13,54,10.00
2009,04,25,13,55,10.10
2009,04,25,13,56,10.20
2009,04,25,13,57,10.20
2009,04,25,13,58,10.10
2009,04,25,13,59,10.10
2009,04,25,14,00,10.10
2009,04,25,14,01,10.10
2009,04,25,14,02,10.10
2009,04,25,14,03,10.10
2009,04,25,14,04,10.20
2009,04,25,14,05,10.30
2009,04,25,14,06,10.50
2009,04,25,14,07,10.70
2009,04,25,14,08,10.80
2009,04,25,14,09,10.70
2009,04,25,14,10,10.60
2009,04,25,14,11,10.70
2009,04,25,14,12,10.80
2009,04,25,14,13,10.80
2009,04,25,14,14,10.90
2009,04,25,14,15,11.00
2009,04,25,14,16,11.20
2009,04,25,14,17,11.30
2009,04,25,14,18,11.20
2009,04,25,14,19,11.20
2009,04,25,14,20,11.20
2009,04,25,14,21,11.10
2009,04,25,14,22,11.10
2009,04,25,14,23,11.00
2009,04,25,14,24,10.90
2009,04,25,14,25,11.00
2009,04,25,14,26,11.10
2009,04,25,14,27,11.20
2009,04,25,14,28,11.30
2009,04,25,14,29,11.20
2009,04,25,14,30,11.10
2009,04,25,14,31,11.10
2009,04,25,14,32,11.10
2009,04,25,14,33,11.30
2009,04,25,14,34,11.50
2009,04,25,14,35,11.70
2009,04,25,14,36,11.70
2009,04,25,14,37,11.70
2009,04,25,14,38,11.60
2009,04,25,14,39,11.60
2009,04,25,14,40,11.60
2009,04,25,14,41,11.70
2009,04,25,14,42,11.80
2009,04,25,14,43,11.70
2009,04,25,14,44,11.60
2009,04,25,14,45,11.60
2009,04,25,14,46,11.60
2009,04,25,14,47,11.60
2009,04,25,14,48,11.40
2009,04,25,14,49,11.40
2009,04,25,14,50,11.40
2009,04,25,14,51,11.50
2009,04,25,14,52,11.60
2009,04,25,14,53,11.70
2009,04,25,14,54,11.80
2009,04,25,14,55,11.70
2009,04,25,14,56,11.60
2009,04,25,14,57,11.60
2009,04,25,14,58,11.60
2009,04,25,14,59,11.60
2009,04,25,15,00,11.60
2009,04,25,15,01,11.60
2009,04,25,15,02,11.60
2009,04,25,15,03,11.60
2009,04,25,15,04,11.60
2009,04,25,15,05,11.70
2009,04,25,15,06,11.80
2009,04,25,15,07,11.80
2009,04,25,15,08,11.60
2009,04,25,15,09,11.40
2009,04,25,15,10,11.20
2009,04,25,15,11,11.10
2009,04,25,15,12,11.10
2009,04,25,15,13,11.10
2009,04,25,15,14,11.20
2009,04,25,15,15,11.30
2009,04,25,15,16,11.40
2009,04,25,15,17,11.40
2009,04,25,15,18,11.40
2009,04,25,15,19,11.40
2009,04,25,15,20,11.60
2009,04,25,15,21,11.40
2009,04,25,15,22,11.40
2009,04,25,15,23,11.30
2009,04,25,15,24,11.30
2009,04,25,15,25,11.30
2009,04,25,15,26,11.30
2009,04,25,15,27,11.20
2009,04,25,15,28,11.20
2009,04,25,15,29,11.30
2009,04,25,15,30,11.30
2009,04,25,15,31,11.30
2009,04,25,15,32,11.20
2009,04,25,15,33,11.30
2009,04,25,15,34,11.40
2009,04,25,15,35,11.50
2009,04,25,15,36,11.50
2009,04,25,15,37,11.40
2009,04,25,15,38,11.40
2009,04,25,15,39,11.20
2009,04,25,15,40,11.10
2009,04,25,15,41,11.10
2009,04,25,15,42,11.00
2009,04,25,15,43,10.90
2009,04,25,15,44,10.80
2009,04,25,15,45,10.70
2009,04,25,15,46,10.60
2009,04,25,15,47,10.50
2009,04,25,15,48,10.40
2009,04,25,15,49,10.60
2009,04,25,15,50,10.80
2009,04,25,15,51,10.90
2009,04,25,15,52,11.00
2009,04,25,15,53,11.10
2009,04,25,15,54,11.20
2009,04,25,15,55,11.30
2009,04,25,15,56,11.40
2009,04,25,15,57,11.60
2009,04,25,15,58,11.70
2009,04,25,15,59,11.80
2009,04,25,16,00,11.80
2009,04,25,16,01,11.80
2009,04,25,16,02,11.80
2009,04,25,16,03,11.80
2009,04,25,16,04,11.80
2009,04,25,16,05,11.80
2009,04,25,16,06,11.80
2009,04,25,16,07,11.70
2009,04,25,16,08,11.60
2009,04,25,16,09,11.50
2009,04,25,16,10,11.30
2009,04,25,16,11,11.00
2009,04,25,16,12,10.80
2009,04,25,16,13,10.70
2009,04,25,16,14,10.70
2009,04,25,16,15,10.70
2009,04,25,16,16,10.80
2009,04,25,16,17,10.80
2009,04,25,16,18,10.80
2009,04,25,16,19,10.90
2009,04,25,16,20,10.80
2009,04,25,16,21,10.80
2009,04,25,16,22,10.70
2009,04,25,16,23,10.80
2009,04,25,16,24,10.80
2009,04,25,16,25,10.70
2009,04,25,16,26,10.60
2009,04,25,16,27,10.60
2009,04,25,16,28,10.50
2009,04,25,16,29,10.40
2009,04,25,16,30,10.40
2009,04,25,16,31,10.60
2009,04,25,16,32,10.60
2009,04,25,16,33,10.40
2009,04,25,16,34,10.40
2009,04,25,16,35,10.40
2009,04,25,16,36,10.40
2009,04,25,16,37,10.40
2009,04,25,16,38,10.30
2009,04,25,16,39,10.20
2009,04,25,16,40,10.20
2009,04,25,16,41,10.20
2009,04,25,16,42,10.20
2009,04,25,16,43,10.30
2009,04,25,16,44,10.50
2009,04,25,16,45,10.70
2009,04,25,16,46,10.90
2009,04,25,16,47,11.00
2009,04,25,16,48,11.20
2009,04,25,16,49,11.30
2009,04,25,16,50,11.40
2009,04,25,16,51,11.50
2009,04,25,16,52,11.60
2009,04,25,16,53,11.60
2009,04,25,16,54,11.70
2009,04,25,16,55,11.70
2009,04,25,16,56,11.60
2009,04,25,16,57,11.60
2009,04,25,16,58,11.60
2009,04,25,16,59,11.70
2009,04,25,17,00,11.70
2009,04,25,17,01,11.70
2009,04,25,17,02,11.80
2009,04,25,17,03,11.80
2009,04,25,17,04,11.80
2009,04,25,17,05,11.70
2009,04,25,17,06,11.70
2009,04,25,17,07,11.80
2009,04,25,17,08,11.80
2009,04,25,17,09,11.80
2009,04,25,17,10,11.70
2009,04,25,17,11,11.40
2009,04,25,17,12,11.20
2009,04,25,17,13,11.10
2009,04,25,17,14,11.10
2009,04,25,17,15,11.20
2009,04,25,17,16,11.30
2009,04,25,17,17,11.40
2009,04,25,17,18,11.40
2009,04,25,17,19,11.50
2009,04,25,17,20,11.70
2009,04,25,17,21,11.80
2009,04,25,17,22,11.90
2009,04,25,17,23,12.00
2009,04,25,17,24,12.00
2009,04,25,17,25,12.10
2009,04,25,17,26,12.00
2009,04,25,17,27,11.80
2009,04,25,17,28,11.70
2009,04,25,17,29,11.60
2009,04,25,17,30,11.60
2009,04,25,17,31,11.60
2009,04,25,17,32,11.70
2009,04,25,17,33,11.70
2009,04,25,17,34,11.80
2009,04,25,17,35,11.80
2009,04,25,17,36,11.80
2009,04,25,17,37,11.90
2009,04,25,17,38,12.00
2009,04,25,17,39,12.00
2009,04,25,17,40,12.00
2009,04,25,17,41,11.80
2009,04,25,17,42,11.70
2009,04,25,17,43,11.60
2009,04,25,17,44,11.50
2009,04,25,17,45,11.40
2009,04,25,17,46,11.40
2009,04,25,17,47,11.40
2009,04,25,17,48,11.30
2009,04,25,17,49,11.30
2009,04,25,17,50,11.20
2009,04,25,17,51,11.10
2009,04,25,17,52,10.90
2009,04,25,17,53,10.80
2009,04,25,17,54,10.70
2009,04,25,17,55,10.70